Date,TemperatureHighF,TemperatureAvgF,TemperatureLowF,DewpointHighF,DewpointAvgF,DewpointLowF,HumidityHigh,HumidityAvg,HumidityLow,PressureMaxIn,PressureMinIn,WindSpeedMaxMPH,WindSpeedAvgMPH,GustSpeedMaxMPH,PrecipitationSumIn
2013-1-1,47.3,40.0,35.6,39.3,35.1,30.7,89,83,71,29.88,29.26,8,4,15,0.06
2013-1-2,51.8,46.2,39.9,48.8,43.2,35.6,92,89,85,30.02,29.88,12,5,17,0.14
2013-1-3,52.0,51.0,49.3,48.5,46.7,45.0,89,85,80,30.38,30.01,14,7,18,0.04
2013-1-4,50.5,49.1,47.3,47.0,45.3,43.3,90,87,80,30.43,30.36,12,6,16,0.00
2013-1-5,50.9,49.0,44.8,46.5,44.4,41.0,88,84,77,30.41,30.22,11,5,16,0.08
2013-1-6,50.0,45.6,40.3,45.2,42.1,37.9,91,87,79,30.40,30.15,8,3,14,0.05
2013-1-7,50.0,48.5,47.1,47.3,45.4,44.0,91,89,87,30.15,29.95,6,3,11,0.28
2013-1-8,52.2,47.8,41.2,48.5,43.8,37.6,91,86,78,30.12,29.91,9,4,17,0.15
2013-1-9,45.5,40.7,36.9,40.5,37.4,33.2,92,88,81,30.11,29.99,5,3,8,0.01
2013-1-10,41.0,38.3,35.6,38.7,35.6,31.8,93,90,86,30.00,29.90,4,1,9,0.01
2013-1-11,42.6,38.4,33.4,38.9,35.2,29.7,92,88,83,29.95,29.89,2,1,4,0.00
2013-1-12,46.6,35.1,30.0,41.8,30.6,27.1,93,84,69,30.07,29.88,3,1,6,0.00
2013-1-13,36.7,34.6,33.3,33.2,30.4,28.6,87,84,81,30.08,29.91,7,2,11,0.08
2013-1-14,43.9,35.1,30.4,35.7,31.0,25.6,92,85,65,29.92,29.67,7,2,11,0.07
2013-1-15,42.8,31.8,24.3,37.4,27.2,19.9,87,83,72,29.86,29.75,3,1,5,0.00
2013-1-16,33.4,29.8,24.6,28.0,25.0,20.1,86,82,79,29.91,29.75,2,0,3,0.00
2013-1-17,35.2,32.7,31.6,27.8,26.3,23.7,84,77,67,29.93,29.73,3,1,8,0.01
2013-1-18,37.0,33.5,28.8,26.6,22.8,19.3,81,65,53,29.73,29.50,11,6,17,0.00
2013-1-19,40.1,33.2,28.2,32.7,26.9,21.3,83,78,65,29.68,29.52,5,2,11,0.00
2013-1-20,34.5,33.3,32.0,27.4,25.5,23.8,80,73,65,29.66,29.49,6,2,11,0.00
2013-1-21,34.7,33.9,33.3,30.0,28.6,24.7,86,81,67,29.49,29.42,9,5,17,0.08
2013-1-22,36.1,34.1,32.5,30.3,29.2,27.1,86,82,76,29.78,29.44,7,2,13,0.09
2013-1-23,35.4,32.8,28.8,30.8,29.0,25.7,88,86,82,29.90,29.75,2,1,4,0.00
2013-1-24,41.2,34.6,32.5,33.6,28.6,24.7,87,79,59,30.00,29.89,10,2,17,0.00
2013-1-25,35.4,34.1,32.0,30.7,28.7,24.2,86,80,67,29.90,29.34,10,3,16,0.11
2013-1-26,46.8,38.7,33.6,40.9,34.1,29.5,89,83,67,29.52,28.88,14,5,23,0.73
2013-1-27,47.7,41.3,35.6,44.4,37.0,30.8,89,85,73,29.17,28.73,17,10,27,0.35
2013-1-28,45.9,41.7,38.5,41.7,37.1,33.4,89,84,74,29.26,28.82,20,11,29,0.85
2013-1-29,52.3,45.8,43.5,48.9,41.0,33.3,91,83,63,29.29,28.90,19,8,23,0.37
2013-1-30,46.6,42.2,39.7,38.7,36.0,33.2,89,79,64,29.60,29.07,19,7,19,0.24
2013-1-31,45.5,41.3,36.7,38.6,36.3,32.0,90,82,72,29.60,29.14,13,7,21,0.66